This is the latest recevied weather packets stored in our database for station/object N9DRW. If no packets are shown the sender has not sent any weather packets the latest 10 day(s).
| Time | Temp. | Humidity | Pressure | Rain* | Wind** | Luminosity | Snow |
|---|---|---|---|---|---|---|---|
| 1778115126 | 7.78° C | 48% | 0 hPa | 0 mm | - | - | - |
| 1778114526 | 7.22° C | 47% | 0 hPa | 0 mm | - | - | - |
| 1778113929 | 7.78° C | 47% | 0 hPa | 0 mm | - | - | - |
| 1778113326 | 7.78° C | 47% | 0 hPa | 0 mm | - | - | - |
| 1778112725 | 7.78° C | 46% | 0 hPa | 0 mm | - | - | - |
| 1778112127 | 7.78° C | 47% | 0 hPa | 0 mm | - | - | - |
| 1778111525 | 8.33° C | 47% | 0 hPa | 0 mm | - | - | - |
| 1778110926 | 7.78° C | 46% | 0 hPa | 0 mm | - | - | - |
| 1778110326 | 8.33° C | 46% | 0 hPa | 0 mm | - | - | - |
| 1778109726 | 8.33° C | 46% | 0 hPa | 0 mm | - | - | - |
| 1778109126 | 8.33° C | 47% | 0 hPa | 0 mm | - | - | - |
| 1778108527 | 7.78° C | 46% | 0 hPa | 0 mm | - | - | - |
| 1778107926 | 8.33° C | 44% | 0 hPa | 0 mm | - | - | - |
| 1778107326 | 8.89° C | 44% | 0 hPa | 0 mm | - | - | - |
| 1778106726 | 9.44° C | 43% | 0 hPa | 0 mm | - | - | - |
| 1778106126 | 10° C | 41% | 0 hPa | 0 mm | - | - | - |
| 1778105525 | 9.44° C | 43% | 0 hPa | 0 mm | - | - | - |
| 1778104926 | 9.44° C | 45% | 0 hPa | 0 mm | - | - | - |
| 1778104326 | 9.44° C | 46% | 0 hPa | 0 mm | - | - | - |
| 1778103725 | 9.44° C | 43% | 0 hPa | 0 mm | - | - | - |
| 1778103126 | 10° C | 43% | 0 hPa | 0 mm | - | - | - |
| 1778102526 | 10.56° C | 42% | 0 hPa | 0 mm | - | - | - |
| 1778101926 | 10° C | 43% | 0 hPa | 0 mm | - | - | - |
| 1778101326 | 9.44° C | 44% | 0 hPa | 0 mm | - | - | - |
| 1778100725 | 9.44° C | 44% | 0 hPa | 0 mm | - | - | - |
* Rain latest hour (hover to see other rain measurements)
** Current wind speed in m/s (hover to see current wind gust speed)